Time,TemperatureF,DewpointF,PressureIn,WindDirection,WindDirectionDegrees,WindSpeedMPH,WindSpeedGustMPH,Humidity,HourlyPrecipIn,Conditions,Clouds,dailyrainin,SoftwareType,DateUTC
2013-03-30 00:06:00,38.1,32.0,30.07,West,281,0.0,0.0,78,0.00,,,0.00,weatherlink.com 1.10,2013-03-30 04:06:00,
2013-03-30 00:36:00,36.8,31.0,30.08,NNW,328,0.0,1.0,79,0.00,,,0.00,weatherlink.com 1.10,2013-03-30 04:36:00,
2013-03-30 00:51:00,35.9,30.0,30.07,NNW,344,0.0,0.0,79,0.00,,,0.00,weatherlink.com 1.10,2013-03-30 04:51:00,
2013-03-30 01:06:00,35.3,30.0,30.07,NNW,344,0.0,0.0,80,0.00,,,0.00,weatherlink.com 1.10,2013-03-30 05:06:00,
2013-03-30 01:21:00,34.1,29.0,30.07,NNW,338,0.0,0.0,81,0.00,,,0.00,weatherlink.com 1.10,2013-03-30 05:21:00,
2013-03-30 01:36:00,32.8,28.0,30.07,NNW,338,0.0,0.0,83,0.00,,,0.00,weatherlink.com 1.10,2013-03-30 05:36:00,
2013-03-30 01:51:00,31.8,28.0,30.07,NNW,338,0.0,0.0,84,0.00,,,0.00,weatherlink.com 1.10,2013-03-30 05:51:00,
2013-03-30 02:07:00,31.7,28.0,30.07,NNW,334,0.0,0.0,85,0.00,,,0.00,weatherlink.com 1.10,2013-03-30 06:07:00,
2013-03-30 02:37:00,30.7,27.0,30.07,NNW,340,0.0,1.0,87,0.00,,,0.00,weatherlink.com 1.10,2013-03-30 06:37:00,
2013-03-30 02:52:00,31.1,27.0,30.08,NNW,340,0.0,0.0,86,0.00,,,0.00,weatherlink.com 1.10,2013-03-30 06:52:00,
2013-03-30 03:07:00,30.4,27.0,30.08,NNW,342,0.0,1.0,88,0.00,,,0.00,weatherlink.com 1.10,2013-03-30 07:07:00,
2013-03-30 03:22:00,29.8,27.0,30.08,NNW,342,0.0,0.0,89,0.00,,,0.00,weatherlink.com 1.10,2013-03-30 07:22:00,
2013-03-30 03:37:00,29.4,26.0,30.08,NNW,342,0.0,0.0,88,0.00,,,0.00,weatherlink.com 1.10,2013-03-30 07:37:00,
2013-03-30 03:52:00,28.9,26.0,30.08,NNW,340,0.0,0.0,90,0.00,,,0.00,weatherlink.com 1.10,2013-03-30 07:52:00,
2013-03-30 04:07:00,28.4,26.0,30.08,NNW,340,0.0,0.0,90,0.00,,,0.00,weatherlink.com 1.10,2013-03-30 08:07:00,
2013-03-30 04:22:00,28.2,26.0,30.08,NNW,340,0.0,0.0,91,0.00,,,0.00,weatherlink.com 1.10,2013-03-30 08:22:00,
2013-03-30 04:37:00,28.1,26.0,30.09,NNW,340,0.0,1.0,91,0.00,,,0.00,weatherlink.com 1.10,2013-03-30 08:37:00,
2013-03-30 05:07:00,27.2,25.0,30.09,NNW,340,0.0,0.0,92,0.00,,,0.00,weatherlink.com 1.10,2013-03-30 09:07:00,
2013-03-30 05:22:00,27.7,26.0,30.09,NNW,341,0.0,1.0,93,0.00,,,0.00,weatherlink.com 1.10,2013-03-30 09:22:00,
2013-03-30 05:37:00,27.8,26.0,30.09,NNW,340,0.0,0.0,92,0.00,,,0.00,weatherlink.com 1.10,2013-03-30 09:37:00,
2013-03-30 05:52:00,27.5,26.0,30.10,NNW,340,0.0,0.0,92,0.00,,,0.00,weatherlink.com 1.10,2013-03-30 09:52:00,
2013-03-30 06:07:00,26.8,25.0,30.10,NNW,340,0.0,0.0,93,0.00,,,0.00,weatherlink.com 1.10,2013-03-30 10:07:00,
2013-03-30 06:22:00,26.3,25.0,30.10,NNW,340,0.0,0.0,93,0.00,,,0.00,weatherlink.com 1.10,2013-03-30 10:22:00,
2013-03-30 06:37:00,26.0,24.0,30.10,NNW,340,0.0,0.0,93,0.00,,,0.00,weatherlink.com 1.10,2013-03-30 10:37:00,
2013-03-30 06:52:00,25.7,24.0,30.11,NNW,340,0.0,0.0,94,0.00,,,0.00,weatherlink.com 1.10,2013-03-30 10:52:00,
2013-03-30 07:07:00,26.7,25.0,30.11,NNW,340,0.0,0.0,94,0.00,,,0.00,weatherlink.com 1.10,2013-03-30 11:07:00,
2013-03-30 07:22:00,27.6,26.0,30.11,NNW,342,0.0,0.0,93,0.00,,,0.00,weatherlink.com 1.10,2013-03-30 11:22:00,
2013-03-30 07:37:00,28.5,27.0,30.12,North,2,0.0,1.0,93,0.00,,,0.00,weatherlink.com 1.10,2013-03-30 11:37:00,
2013-03-30 08:07:00,32.7,30.0,30.12,NNW,339,0.0,1.0,89,0.00,,,0.00,weatherlink.com 1.10,2013-03-30 12:07:00,
2013-03-30 08:22:00,34.9,31.0,30.12,NNW,340,0.0,1.0,85,0.00,,,0.00,weatherlink.com 1.10,2013-03-30 12:22:00,
2013-03-30 08:37:00,37.4,32.0,30.13,NNW,340,0.0,0.0,81,0.00,,,0.00,weatherlink.com 1.10,2013-03-30 12:37:00,
2013-03-30 08:52:00,38.0,32.0,30.12,West,260,0.0,1.0,80,0.00,,,0.00,weatherlink.com 1.10,2013-03-30 12:52:00,
2013-03-30 09:07:00,39.9,33.0,30.12,SSW,206,0.0,2.0,75,0.00,,,0.00,weatherlink.com 1.10,2013-03-30 13:07:00,
2013-03-30 09:22:00,40.4,32.0,30.12,SSW,209,0.0,2.0,72,0.00,,,0.00,weatherlink.com 1.10,2013-03-30 13:22:00,
2013-03-30 09:37:00,41.4,33.0,30.12,SSW,210,0.0,2.0,71,0.00,,,0.00,weatherlink.com 1.10,2013-03-30 13:37:00,
2013-03-30 09:52:00,41.6,32.0,30.12,NNW,327,0.0,2.0,68,0.00,,,0.00,weatherlink.com 1.10,2013-03-30 13:52:00,
2013-03-30 10:07:00,42.4,32.0,30.12,East,92,1.0,2.0,66,0.00,,,0.00,weatherlink.com 1.10,2013-03-30 14:07:00,
2013-03-30 10:23:00,43.2,28.0,30.12,NNW,342,1.0,5.0,56,0.00,,,0.00,weatherlink.com 1.10,2013-03-30 14:23:00,
2013-03-30 10:37:00,43.8,26.0,30.11,NE,44,3.0,6.0,50,0.00,,,0.00,weatherlink.com 1.10,2013-03-30 14:37:00,
2013-03-30 10:52:00,44.3,26.0,30.11,NE,40,5.0,5.0,49,0.00,,,0.00,weatherlink.com 1.10,2013-03-30 14:52:00,
2013-03-30 11:07:00,45.0,26.0,30.11,West,259,0.0,4.0,47,0.00,,,0.00,weatherlink.com 1.10,2013-03-30 15:07:00,
2013-03-30 11:22:00,46.1,26.0,30.10,North,359,0.0,3.0,46,0.00,,,0.00,weatherlink.com 1.10,2013-03-30 15:22:00,
2013-03-30 11:37:00,46.6,25.0,30.10,North,357,2.0,6.0,43,0.00,,,0.00,weatherlink.com 1.10,2013-03-30 15:37:00,
2013-03-30 11:53:00,46.8,25.0,30.10,NW,320,5.0,7.0,42,0.00,,,0.00,weatherlink.com 1.10,2013-03-30 15:53:00,
2013-03-30 12:08:00,47.9,26.0,30.10,NNW,335,6.0,6.0,42,0.00,,,0.00,weatherlink.com 1.10,2013-03-30 16:08:00,
2013-03-30 12:23:00,48.1,24.0,30.09,NNE,32,2.0,6.0,39,0.00,,,0.00,weatherlink.com 1.10,2013-03-30 16:23:00,
2013-03-30 12:38:00,48.5,23.0,30.09,North,2,2.0,7.0,37,0.00,,,0.00,weatherlink.com 1.10,2013-03-30 16:38:00,
2013-03-30 12:53:00,48.7,25.0,30.08,NW,312,4.0,7.0,39,0.00,,,0.00,weatherlink.com 1.10,2013-03-30 16:53:00,
2013-03-30 13:08:00,49.1,24.0,30.07,NW,321,3.0,8.0,37,0.00,,,0.00,weatherlink.com 1.10,2013-03-30 17:08:00,
2013-03-30 13:23:00,49.7,24.0,30.07,NNE,23,5.0,6.0,36,0.00,,,0.00,weatherlink.com 1.10,2013-03-30 17:23:00,
2013-03-30 13:38:00,49.1,22.0,30.07,NW,311,4.0,6.0,35,0.00,,,0.00,weatherlink.com 1.10,2013-03-30 17:38:00,
2013-03-30 13:53:00,49.6,21.0,30.06,NNW,348,1.0,6.0,33,0.00,,,0.00,weatherlink.com 1.10,2013-03-30 17:53:00,
2013-03-30 14:08:00,50.0,23.0,30.06,NNW,347,4.0,9.0,35,0.00,,,0.00,weatherlink.com 1.10,2013-03-30 18:08:00,
2013-03-30 14:23:00,49.5,22.0,30.05,North,357,2.0,7.0,34,0.00,,,0.00,weatherlink.com 1.10,2013-03-30 18:23:00,
2013-03-30 14:38:00,50.2,21.0,30.04,NW,319,0.0,7.0,32,0.00,,,0.00,weatherlink.com 1.10,2013-03-30 18:38:00,
2013-03-30 14:53:00,50.5,22.0,30.04,NNW,331,2.0,7.0,33,0.00,,,0.00,weatherlink.com 1.10,2013-03-30 18:53:00,
2013-03-30 15:08:00,50.5,22.0,30.02,North,6,5.0,6.0,33,0.00,,,0.00,weatherlink.com 1.10,2013-03-30 19:08:00,
2013-03-30 15:23:00,50.5,21.0,30.04,North,356,1.0,8.0,31,0.00,,,0.00,weatherlink.com 1.10,2013-03-30 19:23:00,
2013-03-30 15:38:00,50.7,19.0,30.03,NNW,343,1.0,7.0,29,0.00,,,0.00,weatherlink.com 1.10,2013-03-30 19:38:00,
2013-03-30 15:53:00,50.6,19.0,30.03,NW,317,2.0,7.0,29,0.00,,,0.00,weatherlink.com 1.10,2013-03-30 19:53:00,
2013-03-30 16:08:00,50.6,18.0,30.03,North,7,2.0,10.0,28,0.00,,,0.00,weatherlink.com 1.10,2013-03-30 20:08:00,
2013-03-30 16:23:00,51.2,20.0,30.02,NW,312,4.0,7.0,29,0.00,,,0.00,weatherlink.com 1.10,2013-03-30 20:23:00,
2013-03-30 16:39:00,50.8,18.0,30.02,NW,321,2.0,6.0,27,0.00,,,0.00,weatherlink.com 1.10,2013-03-30 20:39:00,
2013-03-30 16:53:00,51.0,18.0,30.02,North,351,1.0,5.0,27,0.00,,,0.00,weatherlink.com 1.10,2013-03-30 20:53:00,
2013-03-30 17:09:00,50.7,18.0,30.02,WNW,302,2.0,8.0,28,0.00,,,0.00,weatherlink.com 1.10,2013-03-30 21:09:00,
2013-03-30 17:24:00,50.8,19.0,30.02,NW,325,1.0,5.0,28,0.00,,,0.00,weatherlink.com 1.10,2013-03-30 21:24:00,
2013-03-30 17:39:00,50.6,18.0,30.02,North,350,2.0,5.0,28,0.00,,,0.00,weatherlink.com 1.10,2013-03-30 21:39:00,
2013-03-30 17:54:00,50.2,20.0,30.02,North,5,3.0,5.0,30,0.00,,,0.00,weatherlink.com 1.10,2013-03-30 21:54:00,
2013-03-30 18:09:00,49.7,19.0,30.03,NNW,331,1.0,5.0,30,0.00,,,0.00,weatherlink.com 1.10,2013-03-30 22:09:00,
2013-03-30 18:24:00,49.1,19.0,30.03,NW,317,2.0,5.0,31,0.00,,,0.00,weatherlink.com 1.10,2013-03-30 22:24:00,
2013-03-30 18:39:00,48.4,21.0,30.04,NW,323,1.0,3.0,34,0.00,,,0.00,weatherlink.com 1.10,2013-03-30 22:39:00,
2013-03-30 18:54:00,47.4,21.0,30.04,NW,317,1.0,3.0,36,0.00,,,0.00,weatherlink.com 1.10,2013-03-30 22:54:00,
2013-03-30 19:09:00,46.2,22.0,30.04,NNW,329,0.0,2.0,38,0.00,,,0.00,weatherlink.com 1.10,2013-03-30 23:09:00,
2013-03-30 19:24:00,45.3,21.0,30.05,NW,308,0.0,1.0,39,0.00,,,0.00,weatherlink.com 1.10,2013-03-30 23:24:00,
2013-03-30 19:39:00,44.4,21.0,30.06,NNW,334,1.0,2.0,40,0.00,,,0.00,weatherlink.com 1.10,2013-03-30 23:39:00,
2013-03-30 19:54:00,43.4,22.0,30.06,NW,320,0.0,1.0,42,0.00,,,0.00,weatherlink.com 1.10,2013-03-30 23:54:00,
2013-03-30 20:09:00,41.5,23.0,30.07,West,272,0.0,1.0,49,0.00,,,0.00,weatherlink.com 1.10,2013-03-31 00:09:00,
2013-03-30 20:24:00,39.7,24.0,30.07,West,271,0.0,0.0,53,0.00,,,0.00,weatherlink.com 1.10,2013-03-31 00:24:00,
2013-03-30 20:39:00,37.7,23.0,30.08,West,271,0.0,0.0,56,0.00,,,0.00,weatherlink.com 1.10,2013-03-31 00:39:00,
2013-03-30 20:54:00,36.3,23.0,30.08,West,271,0.0,0.0,58,0.00,,,0.00,weatherlink.com 1.10,2013-03-31 00:54:00,
2013-03-30 21:09:00,35.2,23.0,30.09,West,271,0.0,0.0,62,0.00,,,0.00,weatherlink.com 1.10,2013-03-31 01:09:00,
2013-03-30 21:24:00,34.4,22.0,30.09,West,271,0.0,0.0,62,0.00,,,0.00,weatherlink.com 1.10,2013-03-31 01:24:00,
2013-03-30 21:39:00,33.1,22.0,30.09,West,271,0.0,0.0,65,0.00,,,0.00,weatherlink.com 1.10,2013-03-31 01:39:00,
2013-03-30 21:54:00,32.4,23.0,30.09,West,271,0.0,0.0,68,0.00,,,0.00,weatherlink.com 1.10,2013-03-31 01:54:00,
2013-03-30 22:10:00,31.8,23.0,30.09,West,271,0.0,0.0,71,0.00,,,0.00,weatherlink.com 1.10,2013-03-31 02:10:00,
2013-03-30 22:25:00,30.8,23.0,30.10,West,271,0.0,0.0,73,0.00,,,0.00,weatherlink.com 1.10,2013-03-31 02:25:00,
2013-03-30 22:40:00,30.4,23.0,30.09,West,271,0.0,0.0,74,0.00,,,0.00,weatherlink.com 1.10,2013-03-31 02:40:00,
2013-03-30 22:55:00,30.7,23.0,30.09,West,271,0.0,1.0,72,0.00,,,0.00,weatherlink.com 1.10,2013-03-31 02:55:00,
2013-03-30 23:10:00,30.1,22.0,30.09,WNW,298,0.0,0.0,73,0.00,,,0.00,weatherlink.com 1.10,2013-03-31 03:10:00,
2013-03-30 23:25:00,29.7,23.0,30.09,NNE,15,0.0,0.0,75,0.00,,,0.00,weatherlink.com 1.10,2013-03-31 03:25:00,
2013-03-30 23:40:00,29.0,23.0,30.09,NNW,343,0.0,0.0,77,0.00,,,0.00,weatherlink.com 1.10,2013-03-31 03:40:00,
2013-03-30 23:55:00,28.7,23.0,30.09,WNW,294,0.0,0.0,80,0.00,,,0.00,weatherlink.com 1.10,2013-03-31 03:55:00,